Regional Weather Roundup
Issued by NWS

Home | Current Version | Previous Version | Graphics & Text | Print | Product List | Glossary On
Versions: 1 2 3 4 5 6 7 8 9 10 11 12 13 14 15 16 17 18 19 20 21 22 23 24 25 26 27 28 29 30 31 32 33 34 35 36 37 38 39 40 41 42 43 44 45 46 47 48 49 50
000
ASUS43 KDMX 271407
RWRIA

WEATHER ROUNDUP FOR IOWA
NATIONAL WEATHER SERVICE DES MOINES IA
900 AM CDT MON JUL 27 2015

NOTE: "FAIR" INDICATES FEW OR NO CLOUDS BELOW 12,000 FEET WITH NO
SIGNIFICANT WEATHER AND/OR OBSTRUCTIONS TO VISIBILITY.

* - THESE STATIONS ARE NOT NWS STATIONS...THUS NOT UNDER NWS
QUALITY CONTROL.  THEY ALSO DO NOT REPORT WEATHER SUCH
AS PRECIPITATION OR FOG.

IAZ001>003-012>014-020>022-031>034-043>046-271500-
   NORTHWEST IOWA

CITY           SKY/WX    TMP DP  RH WIND       PRES   REMARKS
CARROLL *      CLOUDY    75  73  94 N16G24    29.96R
CHEROKEE *     CLOUDY    72  66  83 CALM      29.90F
DENISON *      CLOUDY    72  68  88 N13       29.93R
LE MARS *      SUNNY     73  68  83 S5        29.88S
ORANGE CITY *  CLOUDY    75  63  64 E3        29.87R
SHELDON *      CLOUDY    72  66  83 SE13G23   29.85F
SIOUX CITY     CLOUDY    76  69  79 E5        29.88R
SPENCER        LGT RAIN  71  67  87 SE10      29.96R FOG
STORM LAKE *   DRIZZLE   70  68  94 N13       29.95F
$$

IAZ055>058-069>071-079>083-090>094-271500-
   SOUTHWEST IOWA

CITY           SKY/WX    TMP DP  RH WIND       PRES   REMARKS
ATLANTIC *     SUNNY     82  77  83 SE8       29.90F HX  91
AUDUBON *      SUNNY     81  75  83 SE9       29.92S HX  86
CLARINDA *     MOSUNNY   82  77  83 S7        29.92S HX  91
COUNCIL BLFS * CLOUDY    77  77 100 S6        29.91R
CRESTON *      SUNNY     81  77  89 SE12      29.93F HX  88
HARLAN  *      MOSUNNY   79  79 100 SE6       29.94R HX  83
LAMONI         SUNNY     82  76  81 SE7       29.93F HX  89
RED OAK *      CLOUDY    81  79  94 S9        29.91R HX  89
SHENANDOAH *   MOSUNNY   81  77  89 S7        29.91R HX  88
$$

IAZ047>049-059>061-072>074-084-271500-
   CENTRAL IOWA

CITY           SKY/WX    TMP DP  RH WIND       PRES   REMARKS
AMES           PTSUNNY   76  73  91 E9        29.94F
ANKENY *       SUNNY     79  75  89 SE9       29.93F HX  82
CHARITON *     MOSUNNY   81  77  89 SE8       29.95F HX  88
DES MOINES     CLOUDY    79  73  82 SE8       29.93F HX  82
GRINNELL*      FOG       73  73 100 E7        29.98S VSB 3/4
KNOXVILLE *    CLOUDY    75  73  94 SE7       29.95F FOG
MARSHALLTOWN   PTSUNNY   76  73  91 SE9       29.97S
PELLA *        FOG       75  75 100 SE6       29.98S VSB 3/4
PERRY *          N/A     79  75  89 SE10      29.91F HX  82
$$

IAZ004>006-015-016-023>025-035-036-271500-
   NORTH CENTRAL IOWA

CITY           SKY/WX    TMP DP  RH WIND       PRES   REMARKS
ALGONA *       CLOUDY    73  73 100 VRB7      29.98R FOG
CLARION *      CLOUDY    73  72  94 SE12      29.96S FOG
ESTHERVILLE    CLOUDY    72  72 100 SE7       29.97R
FORT DODGE *   CLOUDY    73  70  88 SE7       29.98R
MASON CITY     CLOUDY    72  71  97 SE8       30.00R FOG
FOREST CITY *  CLOUDY    73  72  94 SE7       29.98R
IOWA FALLS *   FOG       72  72 100 SE6       29.99S VSB 3/4
$$

IAZ007>011-017>019-026>030-037>042-050>054-066-271500-
   NORTHEAST IOWA

CITY           SKY/WX    TMP DP  RH WIND       PRES   REMARKS
CEDAR RAPIDS   SUNNY     75  72  90 E8        29.98F
CHARLES CITY * CLOUDY    73  73 100 SE10      30.00S
CLINTON *      MOSUNNY   73  66  78 E7        30.03S
DUBUQUE        PTSUNNY   73  66  78 E6        30.02S
MONTICELLO *   SUNNY     73  70  88 SE3       30.00S
OELWEIN *      SUNNY     73  70  88 SE5       30.01S
WATERLOO       CLOUDY    74  70  87 SE10      29.97F
$$

IAZ064-065-067-068-078-271500-
   EAST CENTRAL IOWA

CITY           SKY/WX    TMP DP  RH WIND       PRES   REMARKS
DAVENPORT      SUNNY     75  70  84 E8        30.00S
IOWA CITY      SUNNY     77  71  82 SE7       29.99F
MT. PLEASANT * CLOUDY    77  72  83 SE5       29.98S FOG
MUSCATINE *    SUNNY     77  70  78 VRB5      29.99S
QUAD CITIES    SUNNY     76  69  79 E8        29.99S
$$

IAZ062-063-075>077-085>089-095>099-271500-
   SOUTHEAST IOWA

CITY           SKY/WX    TMP DP  RH WIND       PRES   REMARKS
BURLINGTON     CLOUDY    75  73  93 VRB3      29.98S FOG
FAIRFIELD *    CLOUDY    75  73  94 E7        29.98S FOG
FORT MADISON * SUNNY     75  75 100 NE6       29.98S FOG
KEOKUK *       SUNNY     79  75  89 E8        29.96S HX  82
OSKALOOSA *    FOG       75  73  94 E6        29.98R VSB 1/2
CENTERVILLE *  SUNNY     81  77  89 E8        29.97F HX  88
OTTUMWA        FOG       74  74 100 E8        29.96R VSB 1/2
WASHINGTON *   FOG       73  73 100 CALM      30.00S VSB 1/4
$$

ABBREVIATIONS USED IN REMARKS
   TC - TEMPERATURES IN CELSIUS
  WCI - WIND CHILL INDEX
   HX - HEAT INDEX
  VSB - VISIBILITY
$$




USA.gov is the U.S. government's official web portal to all federal, state and local government web resources and services.